Погода в Гранаде

Испания     37°09′58″N   3°36′12″W
темп.,
°C
ветер,
м/с
пор.,
м/с
влажн.,
%
обл.,
%
осадки,
мм/ч
давл.,
гПа
погр.,
м
2 декабря, чт
чт201:00+5ююз4783100 0.1 1017539
04:00+4ююз41093100 0.5 10141026
07:00+3з4792100 1.6 1013658
10:00+2зсз2597100 1.9 1014601
13:00+2с239495 2.9 1015332
16:00+3ссв2381100 0.1 1015545
19:00+2всв34867 0.4 1019149
22:00+1в34736 0.0 102261
3 декабря, пт
пт301:000в34740 0.0 102460
04:000всв44630 0.0 102453
07:000всв44630 0.0 102542
10:00+3св45570 0.0 1024208
13:00+7св33400 0.0 1022521
16:00+8св33440 0.0 1022448
19:00+4всв33590 0.0 102538
22:00+3в22610 0.0 102619
4 декабря, сб
сб401:00+3в11670 0.0 102617
04:00+2юз11670 0.0 102510
07:00+2ю11690 0.0 102612
10:00+5зсз11580 0.0 1027106
13:00+9сз22510 0.0 1024431
16:00+9зсз22580 0.0 1023643
19:00+5ссв018040 0.0 102631
22:00+4юз118842 0.0 102727
5 декабря, вс
вс501:00+5ю228415 0.0 1026113
04:00+4ююз22800 0.0 102632
07:00+3юз11795 0.0 102624
10:00+5зсз11686 0.0 1026123
13:00+8зсз22530 0.0 1024365
16:00+9з22450 0.0 1022590
19:00+4ссз11655 0.0 102537
22:00+3юв016420 0.0 102630
6 декабря, пн
пн601:00+2сз01635 0.0 102625
04:00+3всв22515 0.0 102618
07:00+3всв335498 0.0 102625
10:00+5всв4655100 0.0 1028414
13:00+8св57421 0.0 1026847
16:00+8св67390 0.0 1024740
19:00+4всв46590 0.0 1027123
22:00+3в33630 0.0 102850